Tracking 28794 objects as of 19-Apr-2024
HD Live streaming from Space Station
objects crossing your sky now

SL-12 DEB

Track SL-12 DEB now!
10-day predictions


NORAD ID: 29317
Int'l Code: 1989-039Y
Perigee: 500.9 km
Apogee: 17,209.5 km
Inclination: 64.9 °
Period: 311.6 minutes
Semi major axis: 15226 km
RCS: 0.105 m2 (medium)
Launch date: May 31, 1989
Source: Commonwealth of Independent States (former USSR) (CIS)
Launch site: TYURATAM MISSILE AND SPACE COMPLEX (TTMTR)

Note: This is SATELLITE DEBRIS
Your satellite tracking list
Your tracking list is empty




NASA's NSSDC Master Catalog

Two Line Element Set (TLE):
1 29317U 89039Y   24109.64133008  .00003203  00000-0  64237-2 0  9994
2 29317  64.9202 232.3898 5486790 134.8252 285.7480  4.62077348149904
Source of the keplerian elements: AFSPC